When you browse on this site, cookies collect data to enhance your experience and personalize the content and advertising you see.
Visit our Privacy Policy to learn more. By continuing to use the site, you agree to this use of cookies and data.
  • In Hungary
  • List of Countries
  • For 7 days
  • Water Temperature
  • Weather Map
  • News
  • Weather Widgets
  • user-avatar
    Login

    Hourly Weather Lincoln

    Today, 29 May, Friday

    Time Temperature Precipitation Wind Pressure Humidity
    00:00 +10°C° 0 mm 3 mps 768 mmHg 89%
    01:00 +9°C° 0 mm 2 mps 768 mmHg 87%
    02:00 +8°C° 0 mm 2 mps 768 mmHg 84%
    03:00 +8°C° 0 mm 2 mps 768 mmHg 82%
    04:00 +9°C° 0 mm 2 mps 768 mmHg 79%
    05:00 +9°C° 0 mm 2 mps 768 mmHg 76%
    06:00 +12°C° 0 mm 2 mps 768 mmHg 76%
    07:00 +13°C° 0 mm 2 mps 767 mmHg 70%
    08:00 +15°C° 0 mm 2 mps 767 mmHg 65%
    09:00 +16°C° 0 mm 3 mps 767 mmHg 59%
    10:00 +17°C° 0 mm 3 mps 767 mmHg 58%
    11:00 +18°C° 0 mm 3 mps 767 mmHg 56%
    12:00 +20°C° 0 mm 3 mps 767 mmHg 58%
    13:00 +20°C° 0 mm 4 mps 766 mmHg 59%
    14:00 +20°C° 0 mm 4 mps 766 mmHg 60%
    15:00 +19°C° 0 mm 4 mps 765 mmHg 61%
    16:00 +18°C° 0 mm 4 mps 765 mmHg 64%
    17:00 +17°C° 0 mm 4 mps 765 mmHg 66%
    18:00 +15°C° 0 mm 4 mps 765 mmHg 69%
    19:00 +13°C° 0 mm 4 mps 765 mmHg 74%
    20:00 +11°C° 0 mm 3 mps 765 mmHg 80%
    21:00 +9°C° 0 mm 3 mps 765 mmHg 85%
    22:00 +8°C° 0 mm 3 mps 765 mmHg 87%
    23:00 +8°C° 0 mm 2 mps 765 mmHg 88%

    Tomorrow, 30 May, Saturday

    Time Temperature Precipitation Wind Pressure Humidity
    00:00 +7°C° 0 mm 2 mps 765 mmHg 90%
    01:00 +7°C° 0 mm 2 mps 765 mmHg 91%
    02:00 +7°C° 0 mm 2 mps 765 mmHg 91%
    03:00 +7°C° 0 mm 1 mps 765 mmHg 91%
    04:00 +8°C° 0 mm 2 mps 765 mmHg 90%
    05:00 +9°C° 0 mm 2 mps 765 mmHg 88%
    06:00 +10°C° 0 mm 2 mps 764 mmHg 86%
    07:00 +12°C° 0 mm 3 mps 764 mmHg 82%
    08:00 +14°C° 0 mm 3 mps 764 mmHg 78%
    09:00 +17°C° 0 mm 3 mps 764 mmHg 74%
    10:00 +18°C° 0 mm 4 mps 764 mmHg 71%
    11:00 +19°C° 0 mm 4 mps 764 mmHg 68%
    12:00 +20°C° 0 mm 4 mps 764 mmHg 64%
    13:00 +20°C° 0 mm 5 mps 764 mmHg 63%
    14:00 +20°C° 0 mm 5 mps 764 mmHg 62%
    15:00 +19°C° 0 mm 5 mps 763 mmHg 62%
    16:00 +17°C° 0 mm 5 mps 763 mmHg 66%
    17:00 +16°C° 0 mm 5 mps 763 mmHg 70%
    18:00 +16°C° 0 mm 5 mps 763 mmHg 73%
    19:00 +14°C° 0 mm 4 mps 763 mmHg 80%
    20:00 +12°C° 0 mm 4 mps 764 mmHg 86%
    21:00 +10°C° 0 mm 3 mps 764 mmHg 92%
    22:00 +9°C° 0 mm 3 mps 764 mmHg 93%
    23:00 +9°C° 0 mm 3 mps 764 mmHg 93%

    Day after tomorrow, 31 May, Sunday

    Time Temperature Precipitation Wind Pressure Humidity
    00:00 +8°C° 0 mm 3 mps 764 mmHg 93%
    01:00 +8°C° 0 mm 2 mps 764 mmHg 93%
    02:00 +8°C° 0 mm 2 mps 764 mmHg 93%
    03:00 +8°C° 0 mm 2 mps 764 mmHg 92%
    04:00 +9°C° 0 mm 2 mps 764 mmHg 90%
    05:00 +10°C° 0 mm 2 mps 765 mmHg 88%
    06:00 +11°C° 0 mm 3 mps 765 mmHg 86%
    07:00 +13°C° 0 mm 3 mps 765 mmHg 81%
    08:00 +16°C° 0 mm 3 mps 765 mmHg 77%
    09:00 +18°C° 0 mm 3 mps 765 mmHg 72%
    10:00 +19°C° 0.1 mm 4 mps 765 mmHg 68%
    11:00 +19°C° 0.1 mm 4 mps 765 mmHg 64%
    12:00 +20°C° 0.1 mm 5 mps 765 mmHg 60%
    13:00 +20°C° 0 mm 5 mps 765 mmHg 60%
    14:00 +20°C° 0 mm 5 mps 764 mmHg 60%
    15:00 +20°C° 0 mm 5 mps 764 mmHg 60%
    16:00 +19°C° 0 mm 5 mps 764 mmHg 64%
    17:00 +17°C° 0 mm 5 mps 764 mmHg 67%
    18:00 +17°C° 0 mm 4 mps 764 mmHg 71%
    19:00 +14°C° 0 mm 4 mps 765 mmHg 78%
    20:00 +12°C° 0 mm 3 mps 765 mmHg 84%
    21:00 +10°C° 0 mm 3 mps 765 mmHg 91%
    22:00 +10°C° 0 mm 3 mps 765 mmHg 92%
    23:00 +9°C° 0 mm 2 mps 765 mmHg 92%

    1 June, Monday

    Time Temperature Precipitation Wind Pressure Humidity
    00:00 +9°C° 0 mm 2 mps 765 mmHg 92%
    01:00 +9°C° 0 mm 2 mps 765 mmHg 92%
    02:00 +8°C° 0 mm 2 mps 765 mmHg 92%
    03:00 +8°C° 0 mm 2 mps 765 mmHg 92%
    04:00 +9°C° 0 mm 2 mps 765 mmHg 91%
    05:00 +10°C° 0 mm 3 mps 765 mmHg 90%
    06:00 +11°C° 0 mm 3 mps 765 mmHg 88%
    07:00 +13°C° 0 mm 3 mps 765 mmHg 82%
    08:00 +15°C° 0 mm 4 mps 765 mmHg 76%
    09:00 +18°C° 0 mm 4 mps 765 mmHg 70%
    10:00 +18°C° 0 mm 4 mps 765 mmHg 66%
    11:00 +19°C° 0 mm 5 mps 765 mmHg 63%
    12:00 +19°C° 0 mm 5 mps 765 mmHg 59%
    13:00 +19°C° 0 mm 5 mps 765 mmHg 58%
    14:00 +19°C° 0 mm 5 mps 764 mmHg 56%
    15:00 +19°C° 0 mm 5 mps 764 mmHg 55%
    16:00 +17°C° 0 mm 5 mps 764 mmHg 59%
    17:00 +16°C° 0 mm 5 mps 764 mmHg 63%
    18:00 +15°C° 0 mm 4 mps 764 mmHg 67%
    19:00 +13°C° 0 mm 4 mps 764 mmHg 74%
    20:00 +11°C° 0 mm 3 mps 764 mmHg 82%
    21:00 +9°C° 0 mm 2 mps 764 mmHg 89%
    22:00 +9°C° 0 mm 2 mps 764 mmHg 90%
    23:00 +8°C° 0 mm 2 mps 764 mmHg 91%

    2 June, Tuesday

    Time Temperature Precipitation Wind Pressure Humidity
    00:00 +8°C° 0 mm 2 mps 763 mmHg 92%
    01:00 +7°C° 0 mm 2 mps 763 mmHg 92%
    02:00 +7°C° 0 mm 2 mps 763 mmHg 92%
    03:00 +7°C° 0 mm 2 mps 763 mmHg 93%
    04:00 +8°C° 0 mm 2 mps 762 mmHg 91%
    05:00 +9°C° 0 mm 2 mps 762 mmHg 89%
    06:00 +10°C° 0 mm 2 mps 762 mmHg 87%
    07:00 +13°C° 0 mm 2 mps 762 mmHg 80%
    08:00 +15°C° 0 mm 2 mps 761 mmHg 73%
    09:00 +16°C° 0 mm 2 mps 761 mmHg 66%
    10:00 +18°C° 0 mm 2 mps 761 mmHg 62%
    11:00 +20°C° 0 mm 1 mps 760 mmHg 59%
    12:00 +21°C° 0 mm 1 mps 760 mmHg 55%
    13:00 +21°C° 0 mm 1 mps 759 mmHg 54%
    14:00 +21°C° 0 mm 1 mps 758 mmHg 53%
    15:00 +22°C° 0 mm 1 mps 758 mmHg 51%
    16:00 +20°C° 0 mm 2 mps 757 mmHg 58%
    17:00 +19°C° 0 mm 2 mps 756 mmHg 64%
    18:00 +18°C° 0 mm 2 mps 756 mmHg 70%
    19:00 +17°C° 0 mm 2 mps 756 mmHg 76%
    20:00 +15°C° 0 mm 2 mps 755 mmHg 83%
    21:00 +13°C° 0 mm 2 mps 755 mmHg 89%
    22:00 +13°C° 0 mm 2 mps 755 mmHg 89%
    23:00 +12°C° 0 mm 1 mps 755 mmHg 89%

    3 June, Wednesday

    Time Temperature Precipitation Wind Pressure Humidity
    00:00 +12°C° 0 mm 1 mps 754 mmHg 89%
    01:00 +12°C° 0 mm 1 mps 754 mmHg 88%
    02:00 +10°C° 0 mm 2 mps 753 mmHg 87%
    03:00 +10°C° 0 mm 2 mps 753 mmHg 85%
    04:00 +11°C° 0 mm 3 mps 753 mmHg 84%
    05:00 +11°C° 0 mm 4 mps 753 mmHg 83%
    06:00 +12°C° 0 mm 5 mps 753 mmHg 82%
    07:00 +13°C° 0 mm 5 mps 753 mmHg 78%
    08:00 +14°C° 0 mm 6 mps 753 mmHg 73%
    09:00 +15°C° 0 mm 6 mps 753 mmHg 69%
    10:00 +15°C° 0 mm 7 mps 753 mmHg 66%
    11:00 +16°C° 0 mm 8 mps 753 mmHg 63%
    12:00 +16°C° 0 mm 8 mps 753 mmHg 60%
    13:00 +16°C° 0 mm 9 mps 753 mmHg 62%
    14:00 +15°C° 0 mm 9 mps 753 mmHg 64%
    15:00 +15°C° 0 mm 9 mps 753 mmHg 66%
    16:00 +13°C° 0 mm 9 mps 753 mmHg 70%
    17:00 +12°C° 0 mm 9 mps 753 mmHg 73%
    18:00 +11°C° 0 mm 9 mps 753 mmHg 77%
    19:00 +11°C° 0 mm 9 mps 753 mmHg 76%
    20:00 +10°C° 0 mm 9 mps 753 mmHg 75%
    21:00 +10°C° 0 mm 8 mps 753 mmHg 74%
    22:00 +10°C° 0 mm 8 mps 753 mmHg 73%
    23:00 +9°C° 0 mm 8 mps 753 mmHg 73%
    Show more